Time,TemperatureF,DewpointF,PressureIn,WindDirection,WindDirectionDegrees,WindSpeedMPH,WindSpeedGustMPH,Humidity,HourlyPrecipIn,Conditions,Clouds,dailyrainin,SoftwareType,DateUTC
2013-06-16 00:01:00,73.0,69.0,30.03,West,277,0.0,0.0,87,0.00,,,0.00,,2013-06-16 05:01:00,
2013-06-16 00:12:00,72.0,68.0,30.03,West,277,0.0,0.0,88,0.00,,,0.00,,2013-06-16 05:12:00,
2013-06-16 00:22:00,72.0,68.0,30.03,West,277,0.0,0.0,88,0.00,,,0.00,,2013-06-16 05:22:00,
2013-06-16 00:34:00,72.0,69.0,30.03,West,277,0.0,0.0,89,0.00,,,0.00,,2013-06-16 05:34:00,
2013-06-16 00:43:00,71.0,68.0,30.03,West,277,0.0,0.0,89,0.00,,,0.00,,2013-06-16 05:43:00,
2013-06-16 00:52:00,71.0,68.0,30.03,West,277,0.0,0.0,90,0.00,,,0.00,,2013-06-16 05:52:00,
2013-06-16 01:01:00,71.0,68.0,30.03,West,277,0.0,0.0,91,0.00,,,0.00,,2013-06-16 06:01:00,
2013-06-16 01:11:00,71.0,68.0,30.03,West,277,0.0,0.0,91,0.00,,,0.00,,2013-06-16 06:11:00,
2013-06-16 01:22:00,71.0,68.0,30.03,West,277,0.0,0.0,91,0.00,,,0.00,,2013-06-16 06:22:00,
2013-06-16 01:33:00,71.0,69.0,30.03,West,277,0.0,0.0,92,0.00,,,0.00,,2013-06-16 06:33:00,
2013-06-16 01:43:00,70.0,68.0,30.03,West,277,0.0,0.0,92,0.00,,,0.00,,2013-06-16 06:43:00,
2013-06-16 01:52:00,70.0,68.0,30.03,West,277,0.0,0.0,92,0.00,,,0.00,,2013-06-16 06:52:00,
2013-06-16 02:01:00,70.0,68.0,30.03,West,277,0.0,0.0,93,0.00,,,0.00,,2013-06-16 07:01:00,
2013-06-16 02:11:00,70.0,68.0,30.02,West,277,0.0,0.0,92,0.00,,,0.00,,2013-06-16 07:11:00,
2013-06-16 02:22:00,70.0,68.0,30.02,West,277,0.0,0.0,93,0.00,,,0.00,,2013-06-16 07:22:00,
2013-06-16 02:33:00,70.0,68.0,30.02,West,277,0.0,0.0,93,0.00,,,0.00,,2013-06-16 07:33:00,
2013-06-16 02:43:00,70.0,68.0,30.01,West,277,0.0,0.0,93,0.00,,,0.00,,2013-06-16 07:43:00,
2013-06-16 02:53:00,70.0,68.0,30.01,West,277,0.0,0.0,93,0.00,,,0.00,,2013-06-16 07:53:00,
2013-06-16 03:02:00,70.0,68.0,30.01,West,276,0.0,0.0,93,0.00,,,0.00,,2013-06-16 08:02:00,
2013-06-16 03:11:00,69.0,67.0,30.01,West,277,0.0,0.0,93,0.00,,,0.00,,2013-06-16 08:11:00,
2013-06-16 03:22:00,69.0,67.0,30.01,West,277,0.0,0.0,94,0.00,,,0.00,,2013-06-16 08:22:00,
2013-06-16 03:33:00,69.0,67.0,30.02,West,277,0.0,0.0,94,0.00,,,0.00,,2013-06-16 08:33:00,
2013-06-16 03:43:00,69.0,67.0,30.01,West,277,0.0,0.0,94,0.00,,,0.00,,2013-06-16 08:43:00,
2013-06-16 03:54:00,69.0,67.0,30.01,West,277,0.0,0.0,94,0.00,,,0.00,,2013-06-16 08:54:00,
2013-06-16 04:02:00,69.0,67.0,30.01,West,277,0.0,0.0,94,0.00,,,0.00,,2013-06-16 09:02:00,
2013-06-16 04:11:00,69.0,67.0,30.01,West,277,0.0,0.0,94,0.00,,,0.00,,2013-06-16 09:11:00,
2013-06-16 04:22:00,69.0,67.0,30.01,West,277,0.0,0.0,94,0.00,,,0.00,,2013-06-16 09:22:00,
2013-06-16 04:33:00,69.0,67.0,30.02,West,277,0.0,0.0,94,0.00,,,0.00,,2013-06-16 09:33:00,
2013-06-16 04:43:00,69.0,67.0,30.01,West,277,0.0,0.0,94,0.00,,,0.00,,2013-06-16 09:43:00,
2013-06-16 04:52:00,69.0,67.0,30.01,West,277,0.0,0.0,94,0.00,,,0.00,,2013-06-16 09:52:00,
2013-06-16 05:01:00,69.0,67.0,30.01,West,277,0.0,1.0,94,0.00,,,0.00,,2013-06-16 10:01:00,
2013-06-16 05:12:00,69.0,67.0,30.01,West,277,0.0,0.0,94,0.00,,,0.00,,2013-06-16 10:12:00,
2013-06-16 05:22:00,69.0,68.0,30.01,West,277,0.0,0.0,95,0.00,,,0.00,,2013-06-16 10:22:00,
2013-06-16 05:33:00,70.0,68.0,30.02,West,277,0.0,0.0,95,0.00,,,0.00,,2013-06-16 10:33:00,
2013-06-16 05:43:00,70.0,68.0,30.01,West,277,0.0,0.0,94,0.00,,,0.00,,2013-06-16 10:43:00,
2013-06-16 05:53:00,69.0,67.0,30.02,West,277,0.0,0.0,94,0.00,,,0.00,,2013-06-16 10:53:00,
2013-06-16 06:02:00,70.0,68.0,30.02,West,277,0.0,0.0,94,0.00,,,0.00,,2013-06-16 11:02:00,
2013-06-16 06:11:00,70.0,68.0,30.03,West,276,0.0,0.0,94,0.00,,,0.00,,2013-06-16 11:11:00,
2013-06-16 06:22:00,70.0,68.0,30.03,West,277,0.0,0.0,94,0.00,,,0.00,,2013-06-16 11:22:00,
2013-06-16 06:34:00,70.0,68.0,30.03,West,277,0.0,0.0,94,0.00,,,0.00,,2013-06-16 11:34:00,
2013-06-16 06:43:00,70.0,68.0,30.03,West,277,0.0,0.0,94,0.00,,,0.00,,2013-06-16 11:43:00,
2013-06-16 06:52:00,70.0,68.0,30.03,West,277,0.0,0.0,94,0.00,,,0.00,,2013-06-16 11:52:00,
2013-06-16 07:02:00,70.0,68.0,30.03,West,278,0.0,0.0,93,0.00,,,0.00,,2013-06-16 12:02:00,
2013-06-16 07:12:00,70.0,68.0,30.03,West,278,0.0,0.0,94,0.00,,,0.00,,2013-06-16 12:12:00,
2013-06-16 07:22:00,71.0,69.0,30.04,West,278,0.0,0.0,93,0.00,,,0.00,,2013-06-16 12:22:00,
2013-06-16 07:32:00,71.0,69.0,30.04,West,278,0.0,0.0,92,0.00,,,0.00,,2013-06-16 12:32:00,
2013-06-16 07:42:00,71.0,69.0,30.04,West,278,0.0,0.0,92,0.00,,,0.00,,2013-06-16 12:42:00,
2013-06-16 07:53:00,72.0,70.0,30.05,North,354,0.0,0.0,92,0.00,,,0.00,,2013-06-16 12:53:00,
2013-06-16 08:01:00,73.0,70.0,30.05,North,354,0.0,0.0,90,0.00,,,0.00,,2013-06-16 13:01:00,
2013-06-16 08:11:00,73.0,70.0,30.06,North,354,0.0,0.0,90,0.00,,,0.00,,2013-06-16 13:11:00,
2013-06-16 08:22:00,74.0,71.0,30.06,North,354,0.0,0.0,89,0.00,,,0.00,,2013-06-16 13:22:00,
2013-06-16 08:34:00,74.0,71.0,30.06,North,354,0.0,0.0,89,0.00,,,0.00,,2013-06-16 13:34:00,
2013-06-16 08:43:00,75.0,71.0,30.06,North,354,0.0,0.0,87,0.00,,,0.00,,2013-06-16 13:43:00,
2013-06-16 08:53:00,76.0,70.0,30.06,NE,43,0.0,0.0,81,0.00,,,0.00,,2013-06-16 13:53:00,
2013-06-16 09:02:00,77.0,70.0,30.07,NE,43,0.0,0.0,79,0.00,,,0.00,,2013-06-16 14:02:00,
2013-06-16 09:12:00,78.0,70.0,30.06,NE,43,0.0,0.0,77,0.00,,,0.00,,2013-06-16 14:12:00,
2013-06-16 09:22:00,79.0,70.0,30.06,NNE,32,0.0,1.0,74,0.00,,,0.00,,2013-06-16 14:22:00,
2013-06-16 09:34:00,80.0,71.0,30.06,ENE,57,0.0,1.0,74,0.00,,,0.00,,2013-06-16 14:34:00,
2013-06-16 09:43:00,81.0,72.0,30.06,East,101,0.0,1.0,73,0.00,,,0.00,,2013-06-16 14:43:00,
2013-06-16 09:52:00,81.0,71.0,30.05,ESE,108,0.0,2.0,71,0.00,,,0.00,,2013-06-16 14:52:00,
2013-06-16 10:02:00,82.0,71.0,30.05,SE,128,0.0,1.0,69,0.00,,,0.00,,2013-06-16 15:02:00,
2013-06-16 10:12:00,82.0,71.0,30.04,WSW,256,0.0,1.0,69,0.00,,,0.00,,2013-06-16 15:12:00,
2013-06-16 10:23:00,83.0,71.0,30.04,South,188,0.0,1.0,68,0.00,,,0.00,,2013-06-16 15:23:00,
2013-06-16 10:33:00,85.0,71.0,30.03,SE,125,0.0,2.0,64,0.00,,,0.00,,2013-06-16 15:33:00,
2013-06-16 10:43:00,85.0,71.0,30.03,WSW,243,0.0,2.0,64,0.00,,,0.00,,2013-06-16 15:43:00,
2013-06-16 10:52:00,85.0,71.0,30.03,WSW,256,0.0,2.0,63,0.00,,,0.00,,2013-06-16 15:52:00,
2013-06-16 11:02:00,85.0,72.0,30.03,WSW,238,0.0,2.0,65,0.00,,,0.00,,2013-06-16 16:02:00,
2013-06-16 11:12:00,86.0,72.0,30.04,WNW,283,0.0,2.0,63,0.00,,,0.00,,2013-06-16 16:12:00,
2013-06-16 11:23:00,86.0,72.0,30.04,North,353,0.0,1.0,64,0.00,,,0.00,,2013-06-16 16:23:00,
2013-06-16 11:33:00,86.0,72.0,30.04,WSW,249,0.0,1.0,63,0.00,,,0.00,,2013-06-16 16:33:00,
2013-06-16 11:43:00,86.0,72.0,30.04,WSW,255,0.0,2.0,63,0.00,,,0.00,,2013-06-16 16:43:00,
2013-06-16 11:53:00,86.0,71.0,30.03,ESE,112,0.0,1.0,62,0.00,,,0.00,,2013-06-16 16:53:00,
2013-06-16 12:02:00,88.0,73.0,30.03,NE,44,0.0,1.0,62,0.00,,,0.00,,2013-06-16 17:02:00,
2013-06-16 12:12:00,89.0,73.0,30.03,WSW,253,0.0,2.0,59,0.00,,,0.00,,2013-06-16 17:12:00,
2013-06-16 12:22:00,88.0,72.0,30.03,West,276,0.0,2.0,60,0.00,,,0.00,,2013-06-16 17:22:00,
2013-06-16 12:34:00,87.0,72.0,30.03,SSW,212,0.0,2.0,62,0.00,,,0.00,,2013-06-16 17:34:00,
2013-06-16 12:43:00,87.0,72.0,30.03,SSW,211,0.0,1.0,62,0.00,,,0.00,,2013-06-16 17:43:00,
2013-06-16 12:53:00,87.0,73.0,30.03,ESE,114,0.0,1.0,64,0.00,,,0.00,,2013-06-16 17:53:00,
2013-06-16 13:02:00,87.0,73.0,30.02,ESE,118,0.0,1.0,63,0.00,,,0.00,,2013-06-16 18:02:00,
2013-06-16 13:12:00,89.0,72.0,30.02,ESE,103,0.0,1.0,58,0.00,,,0.00,,2013-06-16 18:12:00,
2013-06-16 13:22:00,89.0,72.0,30.02,SW,221,0.0,2.0,57,0.00,,,0.00,,2013-06-16 18:22:00,
2013-06-16 13:33:00,90.0,74.0,30.01,SW,229,0.0,1.0,59,0.00,,,0.00,,2013-06-16 18:33:00,
2013-06-16 13:43:00,90.0,72.0,30.01,WSW,239,1.0,3.0,55,0.00,,,0.00,,2013-06-16 18:43:00,
2013-06-16 13:52:00,89.0,72.0,30.01,SW,236,0.0,2.0,58,0.00,,,0.00,,2013-06-16 18:52:00,
2013-06-16 14:01:00,90.0,72.0,30.01,West,260,1.0,4.0,56,0.00,,,0.00,,2013-06-16 19:01:00,
2013-06-16 14:11:00,90.0,72.0,30.01,SSW,201,0.0,3.0,56,0.00,,,0.00,,2013-06-16 19:11:00,
2013-06-16 14:22:00,90.0,72.0,30.00,West,269,0.0,3.0,55,0.00,,,0.00,,2013-06-16 19:22:00,
2013-06-16 14:34:00,90.0,72.0,30.00,NE,53,1.0,4.0,55,0.00,,,0.00,,2013-06-16 19:34:00,
2013-06-16 14:43:00,90.0,72.0,30.00,SSW,212,1.0,6.0,55,0.00,,,0.00,,2013-06-16 19:43:00,
2013-06-16 14:53:00,89.0,71.0,30.01,SSW,203,0.0,4.0,56,0.00,,,0.00,,2013-06-16 19:53:00,
2013-06-16 15:02:00,89.0,71.0,30.00,SSW,208,0.0,2.0,56,0.00,,,0.00,,2013-06-16 20:02:00,
2013-06-16 15:11:00,89.0,71.0,30.00,SW,214,0.0,2.0,56,0.00,,,0.00,,2013-06-16 20:11:00,
2013-06-16 15:22:00,89.0,72.0,30.00,WSW,243,1.0,2.0,57,0.00,,,0.00,,2013-06-16 20:22:00,
2013-06-16 15:33:00,88.0,71.0,30.00,SSE,152,0.0,2.0,57,0.00,,,0.00,,2013-06-16 20:33:00,
2013-06-16 15:42:00,88.0,72.0,29.99,SW,222,0.0,1.0,59,0.00,,,0.00,,2013-06-16 20:42:00,
2013-06-16 15:53:00,88.0,72.0,29.98,SSE,167,0.0,1.0,59,0.00,,,0.00,,2013-06-16 20:53:00,
2013-06-16 16:01:00,88.0,72.0,29.98,SSW,208,0.0,1.0,59,0.00,,,0.00,,2013-06-16 21:01:00,
2013-06-16 16:11:00,89.0,71.0,29.98,WSW,245,0.0,1.0,56,0.00,,,0.00,,2013-06-16 21:11:00,
2013-06-16 16:22:00,89.0,71.0,29.98,SW,235,1.0,3.0,56,0.00,,,0.00,,2013-06-16 21:22:00,
2013-06-16 16:32:00,90.0,72.0,29.98,South,174,0.0,3.0,55,0.00,,,0.00,,2013-06-16 21:32:00,
2013-06-16 16:42:00,91.0,71.0,29.98,SW,224,0.0,2.0,52,0.00,,,0.00,,2013-06-16 21:42:00,
2013-06-16 16:53:00,90.0,71.0,29.98,SSE,162,0.0,3.0,54,0.00,,,0.00,,2013-06-16 21:53:00,
2013-06-16 17:01:00,90.0,71.0,29.98,SSW,208,0.0,3.0,54,0.00,,,0.00,,2013-06-16 22:01:00,
2013-06-16 17:12:00,92.0,71.0,29.98,West,277,0.0,1.0,51,0.00,,,0.00,,2013-06-16 22:12:00,
2013-06-16 17:22:00,93.0,72.0,29.97,SSE,149,0.0,1.0,51,0.00,,,0.00,,2013-06-16 22:22:00,
2013-06-16 17:32:00,93.0,72.0,29.97,ESE,121,0.0,1.0,50,0.00,,,0.00,,2013-06-16 22:32:00,
2013-06-16 17:42:00,93.0,70.0,29.97,SSW,211,0.0,1.0,48,0.00,,,0.00,,2013-06-16 22:42:00,
2013-06-16 17:52:00,92.0,72.0,29.98,SSW,211,0.0,0.0,52,0.00,,,0.00,,2013-06-16 22:52:00,
2013-06-16 18:01:00,90.0,72.0,29.98,ENE,59,0.0,1.0,56,0.00,,,0.00,,2013-06-16 23:01:00,
2013-06-16 18:11:00,89.0,72.0,29.98,SSW,205,0.0,1.0,58,0.00,,,0.00,,2013-06-16 23:11:00,
2013-06-16 18:22:00,88.0,73.0,29.98,WSW,246,0.0,3.0,61,0.00,,,0.00,,2013-06-16 23:22:00,
2013-06-16 18:32:00,87.0,74.0,29.98,SW,229,0.0,1.0,65,0.00,,,0.00,,2013-06-16 23:32:00,
2013-06-16 18:42:00,86.0,73.0,29.98,SW,224,0.0,1.0,66,0.00,,,0.00,,2013-06-16 23:42:00,
2013-06-16 18:52:00,85.0,72.0,29.97,WSW,242,0.0,1.0,66,0.00,,,0.00,,2013-06-16 23:52:00,
2013-06-16 19:02:00,85.0,73.0,29.98,WSW,250,0.0,2.0,67,0.00,,,0.00,,2013-06-17 00:02:00,
2013-06-16 19:11:00,84.0,72.0,29.97,NNW,342,0.0,2.0,68,0.00,,,0.00,,2013-06-17 00:11:00,
2013-06-16 19:22:00,84.0,73.0,29.97,SSW,212,0.0,4.0,69,0.00,,,0.00,,2013-06-17 00:22:00,
2013-06-16 19:32:00,84.0,73.0,29.98,SW,217,1.0,2.0,69,0.00,,,0.00,,2013-06-17 00:32:00,
2013-06-16 19:43:00,83.0,71.0,29.98,SW,215,1.0,2.0,68,0.00,,,0.00,,2013-06-17 00:43:00,
2013-06-16 19:52:00,83.0,71.0,29.98,WSW,255,0.0,1.0,67,0.00,,,0.00,,2013-06-17 00:52:00,
2013-06-16 20:02:00,83.0,71.0,29.97,SSW,211,0.0,1.0,67,0.00,,,0.00,,2013-06-17 01:02:00,
2013-06-16 20:12:00,82.0,69.0,29.97,SSW,210,0.0,1.0,66,0.00,,,0.00,,2013-06-17 01:12:00,
2013-06-16 20:22:00,81.0,69.0,29.96,ESE,110,0.0,1.0,66,0.00,,,0.00,,2013-06-17 01:22:00,
2013-06-16 20:32:00,81.0,69.0,29.96,ESE,108,0.0,0.0,66,0.00,,,0.00,,2013-06-17 01:32:00,
2013-06-16 20:43:00,80.0,68.0,29.96,ESE,108,0.0,0.0,67,0.00,,,0.00,,2013-06-17 01:43:00,
2013-06-16 20:53:00,79.0,68.0,29.97,ESE,110,0.0,0.0,68,0.00,,,0.00,,2013-06-17 01:53:00,
2013-06-16 21:02:00,79.0,68.0,29.97,ESE,110,0.0,0.0,69,0.00,,,0.00,,2013-06-17 02:02:00,
2013-06-16 21:12:00,78.0,67.0,29.97,ESE,110,0.0,0.0,70,0.00,,,0.00,,2013-06-17 02:12:00,
2013-06-16 21:22:00,78.0,68.0,29.97,ESE,110,0.0,1.0,71,0.00,,,0.00,,2013-06-17 02:22:00,
2013-06-16 21:34:00,78.0,68.0,29.97,ESE,110,0.0,0.0,71,0.00,,,0.00,,2013-06-17 02:34:00,
2013-06-16 21:43:00,77.0,67.0,29.97,ESE,110,0.0,0.0,72,0.00,,,0.00,,2013-06-17 02:43:00,
2013-06-16 21:53:00,77.0,68.0,29.98,ESE,110,0.0,0.0,73,0.00,,,0.00,,2013-06-17 02:53:00,
2013-06-16 22:02:00,76.0,67.0,29.98,ESE,110,0.0,0.0,75,0.00,,,0.00,,2013-06-17 03:02:00,
2013-06-16 22:12:00,76.0,68.0,29.98,ESE,110,0.0,0.0,77,0.00,,,0.00,,2013-06-17 03:12:00,
2013-06-16 22:22:00,75.0,67.0,29.98,ESE,110,0.0,0.0,77,0.00,,,0.00,,2013-06-17 03:22:00,
2013-06-16 22:33:00,75.0,68.0,29.98,ESE,110,0.0,0.0,78,0.00,,,0.00,,2013-06-17 03:33:00,
2013-06-16 22:44:00,75.0,68.0,29.98,ESE,110,0.0,0.0,80,0.00,,,0.00,,2013-06-17 03:44:00,
2013-06-16 22:53:00,74.0,68.0,29.98,ESE,110,0.0,0.0,81,0.00,,,0.00,,2013-06-17 03:53:00,
2013-06-16 23:02:00,74.0,68.0,29.98,ESE,110,0.0,0.0,82,0.00,,,0.00,,2013-06-17 04:02:00,
2013-06-16 23:12:00,74.0,68.0,29.97,ESE,110,0.0,0.0,83,0.00,,,0.00,,2013-06-17 04:12:00,
2013-06-16 23:22:00,75.0,70.0,29.98,ESE,108,0.0,1.0,84,0.00,,,0.00,,2013-06-17 04:22:00,
2013-06-16 23:34:00,75.0,70.0,29.97,SE,143,0.0,1.0,85,0.00,,,0.00,,2013-06-17 04:34:00,
2013-06-16 23:43:00,75.0,71.0,29.98,SE,143,0.0,0.0,86,0.00,,,0.00,,2013-06-17 04:43:00,
2013-06-16 23:53:00,75.0,71.0,29.98,SW,225,0.0,2.0,86,0.00,,,0.00,,2013-06-17 04:53:00,